User: anonymous   Login
Location: La Fredeussais
(48.1780°N, 1.3980°W)
Time: 12:30:19
(UTC+00:00)
Language:

N. Korean satellite - Orbit

View from above orbital plane
View from above orbital plane
View from above satellite
View from above satellite

Ground track
Ground track

The orbit data is extracted from the following two-line orbital elements,

1 39026U 12072A   21263.87643899  .00003273  00000-0  11047-3 0  9991
2 39026  97.2509 254.4824 0036545  46.3976 314.0288 15.30753673487624
Epoch (UTC): 20 September 2021 21:02:04
Eccentricity: 0.0036545
inclination: 97.2509°
perigee height: 448 km
apogee height: 498 km
right ascension of ascending node: 254.4824°
argument of perigee: 46.3976°
revolutions per day: 15.30753673
mean anomaly at epoch: 314.0288°
orbit number at epoch: 48762

The dashed part of the orbit path shows where the satellite is in the earth's shadow,  

DLR